Regional Weather Roundup
Issued by NWS

Home | Current Version | Previous Version | Text Only | Print | Product List | Glossary Off
Versions: 1 2 3 4 5 6 7 8 9 10 11 12 13 14 15 16 17 18 19 20 21 22 23 24 25 26 27 28 29 30 31 32 33 34 35 36 37 38 39 40 41 42 43 44 45 46 47 48 49 50

000
ASUS43 KMKX 031121
RWRWI

WISCONSIN REGIONAL WEATHER ROUNDUP
NATIONAL WEATHER SERVICE MILWAUKEE/SULLIVAN WI
600 AM CDT THU SEP 03 2015

NOTE: "FAIR" INDICATES FEW OR NO CLOUDS BELOW 12,000 FEET WITH NO
SIGNIFICANT WEATHER AND/OR OBSTRUCTIONS TO VISIBILITY.

WIZ001-002-006>008-014>016-023>028-031200-
NORTHWEST WISCONSIN

CITY           SKY/WX    TMP DP  RH WIND       PRES   REMARKS
SUPERIOR ARPT  FOG       59  59 100 NE5       29.97S VSB 1
ASHLAND        FOG       62  62 100 NE5       29.98R VSB 1/4
HAYWARD        FOG       63  62  97 CALM      29.97R VSB 3/4
SIREN          CLOUDY    63  63  98 E3        29.94S FOG
CUMBERLAND     FOG       61  59  94 NE3       29.95S VSB 1/4
RICE LAKE      FOG       60  59  96 CALM      29.96R VSB 1
CHETEK         PTCLDY   N/A N/A N/A CALM      29.94S
LADYSMITH      FOG       64  63  97 NE7       29.98R VSB 3/4
EAU CLAIRE     FOG       67  66  97 NE3       29.92R VSB 1/4
MENOMONIE      CLOUDY    67  67  99 NE3       29.93R FOG
NEW RICHMOND   CLOUDY    66  66  99 E3        29.93R FOG
OSCEOLA        CLOUDY    67  67 100 E3        29.95R
$$

WIZ003>005-009-010-017-018-031200-
NORTH CENTRAL WISCONSIN

CITY           SKY/WX    TMP DP  RH WIND       PRES   REMARKS
MANITOWISH WTR CLOUDY    62  62 100 CALM      29.99R FOG
ARBOR VITAE    CLOUDY    63  62  96 CALM      29.98S
WOODRUFF       CLOUDY    63  62  96 CALM      29.98S
RHINELANDER    CLOUDY    64  62  93 NE5       29.98R
EAGLE RIVER    CLOUDY    63  63 100 NE5       29.98R FOG
LAND O LAKES   MOCLDY    60  60 100 CALM      30.00R FOG
PHILLIPS       CLOUDY    64  64 100 E5        29.97S
TOMAHAWK       CLOUDY    64  62  94 CALM      29.97S
MEDFORD        FOG       63  63 100 NE8       29.96R VSB 1/2
MERRILL        CLOUDY    65  65 100 N3        29.97S
$$

WIZ029-030-035-036-043>047-031200-
CENTRAL WISCONSIN

CITY           SKY/WX    TMP DP  RH WIND       PRES   REMARKS
WAUSAU         CLOUDY    65  64  97 NE5       29.94R
MOSINEE        CLOUDY    64  64 100 N7        29.96R FOG
MARSHFIELD     FOG       67  64  90 NE6       29.94R VSB 1/4
STEVENS POINT  CLOUDY    65  65 100 N5        29.94R FOG
WAUPACA        MOCLDY    69  69  98 CALM      29.92S FOG
WAUTOMA        PTCLDY    69  69 100 CALM      29.91F FOG
WISC RAPIDS    CLOUDY    68  66  93 N5        29.94R FOG
CAMP DOUGLAS   FOG       63  63 100 CALM      29.92S VSB<1/4
$$

WIZ011>013-019>022-031-037>040-048>050-031200-
NORTHEAST WISCONSIN

CITY           SKY/WX    TMP DP  RH WIND       PRES   REMARKS
ANTIGO         CLOUDY    64  63  99 N8        29.96R
SHAWANO        NOT AVBL
OCONTO         CLOUDY    66  66 100 NW3       29.89R
STURGEON BAY   CLOUDY    66  63  88 E3        29.92R VSB 1/2
GREEN BAY      CLOUDY    69  68  96 NW8       29.90R
MANITOWOC      CLOUDY    72  68  87 MISG      29.89R
APPLETON       CLOUDY    70  70 100 NW9       29.90R FOG
CLINTONVILLE   CLOUDY    66  64  94 N6        29.91S
OSHKOSH        CLOUDY    71  68  90 SW6       29.89F FOG
$$

WIZ032>034-041-042-053>061-031200-
SOUTHWEST WISCONSIN

CITY           SKY/WX    TMP DP  RH WIND       PRES   REMARKS
LA CROSSE      CLEAR     71  69  93 CALM      29.90S FOG
SPARTA         CLEAR     62  61  96 CALM      29.92S
VIROQUA          N/A     67  67 100 W3        29.93F
BOSCOBEL       FOG       69  67  93 CALM      29.91F VSB 3/4
PRAIRIE DU CHI CLEAR     70  67  90 CALM      29.91S
PLATTEVILLE    PTCLDY    69  68  96 S6        29.94S
$$

WIZ056-057-062-063-064-067-068-031200-
SOUTH CENTRAL WISCONSIN

CITY           SKY/WX    TMP DP  RH WIND       PRES   REMARKS
REEDSBURG      CLEAR     71  68  92 CALM      29.91S
BARABOO/DELLS  CLEAR     71  66  85 CALM      29.92S
LONE ROCK      CLEAR     66  64  93 CALM      29.92S FOG
MINERAL POINT  CLEAR     72  68  88 SW5       29.94S
MADISON        PTCLDY    72  67  84 CALM      29.92R
MIDDLETON      CLEAR     69  67  94 CALM      29.93R
WATERTOWN      PTCLDY    68  68 100 CALM      29.91S
MONROE         CLEAR     70  66  88 SW10      29.93F
JANESVILLE     PTCLDY    70  68  94 CALM      29.93S FOG
$$

WIZ051-052-058>065-066-070>072-031200-
SOUTHEAST WISCONSIN

CITY           SKY/WX    TMP DP  RH WIND       PRES   REMARKS
MILWAUKEE      MOCLDY    73  68  84 SW10      29.92S
WAUKESHA       PTCLDY    70  66  88 SW3       29.94S
MILWAUKEE/TIMM MOCLDY    72  64  78 SW5       29.92S
RACINE         MOCLDY    72  67  84 SW7       29.94F
BURLINGTON     CLEAR     66  65  96 SW3       29.94S
KENOSHA        CLEAR     72  68  87 SW6       29.94F
FOND DU LAC    CLOUDY    71  69  93 SW5       29.91S
SHEBOYGAN      RAIN      71  69  93 CALM      29.90F FOG
WEST BEND      CLOUDY    70  66  88 CALM      29.91S
JUNEAU         MOCLDY    69  67  95 CALM      29.94R FOG
$$

LSZ147-162-031200-
LAKE SUPERIOR

STATION/POSITION TIME  TEMP    WIND        PRES    WAVE
                       AIR SEA DIR/SP/G            HT/PER
                 (UTC) (F)     (DEG/KT/KT) (MB)    (FT/S)
W MID LAKE BUOY  1050   57 56   50/  8/  8 1014.9R   0
DEVILS ISLAND    1100   57      70/  5/  6 1015.1R
PORT WING        1000   60      CALM  /  2 1014.9S
SAXON HARBOR     1040   60        CALM     1014.6R
$$

LMZ867-665-643>646-031200-
LAKE MICHIGAN

STATION/POSITION TIME  TEMP    WIND        PRES    WAVE
                       AIR SEA DIR/SP/G            HT/PER
                 (UTC) (F)     (DEG/KT/KT) (MB)    (FT/S)
CHAMBERS ISLAND  1000   67      60/  3/ 10 1011.9S
S GREEN BAY BUOY 1100   67 66  330/  6/  8 1013.5R
N MID LAKE BUOY  1050   67 66  100/ 17/ 21 1011.2F   3/ 5
NORTHPORT PIER   1000   66      90/ 16/ 20 1011.9F
SISTER BAY       1011   66     120/ 12/ 18   N/A
ALGOMA LAKESHORE 1014             CALM       N/A
KEWAUNEE LAKESHO 1100   63     260/  1/  2 1010.8S
SHEBOYGAN LAKESH 1100   71     230/  8/  8 1012.2R
PORT WASHINGTON  1000   60     190/  3/  5 1013.2S
ATWATER BUOY     1100   68     230/  8/ 10 1014.2F
MILWAUKEE LAKESH 1110   74     240/ 11/ 12   N/A
S MID LAKE BUOY  1050   74 71  220/ 12/ 14 1012.7F   0
KENOSHA   LAKESH 1100   75     230/  5/  9 1013.2F
$$

TC  - TEMPERATURE IN CELSIUS
VSB - VISIBILITY IN STATUTE MILES
WCI - WIND CHILL INDEX
HX  - HEAT INDEX




USA.gov is the U.S. government's official web portal to all federal, state and local government web resources and services.